Weather History for K20V - June, 2013

Change the Weather History Date:

Saturday, June 22, 2013

  Actual Average (KEGE) Record (KEGE)
Temperature  
Mean Temperature 56 °F -  
Max Temperature 78 °F 83 °F 97 °F (1954)
Min Temperature 33 °F 40 °F 24 °F (1989)
Degree Days  
Heating Degree Days 10    
Growing Degree Days 6 (Base 50)    
Moisture  
Dew Point 19 °F    
Average Humidity 30    
Maximum Humidity 75    
Minimum Humidity 6    
Precipitation  
Precipitation 0.00 in - - ()
Sea Level Pressure  
Sea Level Pressure 30.09 in    
Wind  
Wind Speed 4 mph (WSW)    
Max Wind Speed 24 mph    
Max Gust Speed 32 mph    
Visibility 10 miles    
Events      
Averages and records for this station are not official NWS values.
T = Trace of Precipitation, MM = Missing Value Source: NWS Daily Summary

Daily Weather History Graph

Daily Weather History Graph

Search for Another Location

Airport or City:

Trip Planner

Search our weather history database for the weather conditions in past years. The results will help you decide how hot, cold, wet, or windy it might be!

Date:

Astronomy

Jun. 22, 2013 Rise Set
Actual Time 5:36 AM MDT 8:38 PM MDT
Civil Twilight 5:04 AM MDT 9:11 PM MDT
Nautical Twilight 4:22 AM MDT 9:52 PM MDT
Astronomical Twilight 3:33 AM MDT 10:41 PM MDT
Moon 7:55 PM MDT (6/22) 4:52 AM MDT (6/22)
Length of Visible Light 16h 07m
Length of Day
15h 01m
Waxing Gibbous, 99% of the Moon is Illuminated
Jun 22
Waxing Gibbous
Jun 23
Full
Jun 29
Last Quarter
Jul 8
New
Jul 15
First Quarter

Hourly Weather History & Observations

Time (MDT) Temp. Windchill Dew Point Humidity Pressure Visibility Wind Dir Wind Speed Gust Speed Precip Events Conditions
12:16 AM 50.0 °F - 23.0 °F 35% 30.10 in 10.0 mi Calm Calm - N/A   Clear
12:35 AM 46.4 °F - 23.0 °F 40% 30.11 in 10.0 mi Calm Calm - N/A   Clear
12:56 AM 46.4 °F - 24.8 °F 43% 30.11 in 10.0 mi Calm Calm - N/A   Clear
1:15 AM 44.6 °F 43.1 °F 23.0 °F 43% 30.11 in 10.0 mi East 3.5 mph - N/A   Clear
1:36 AM 42.8 °F - 24.8 °F 49% 30.12 in 10.0 mi Calm Calm - N/A   Clear
1:55 AM 41.0 °F - 23.0 °F 49% 30.12 in 10.0 mi Calm Calm - N/A   Clear
2:16 AM 41.0 °F - 24.8 °F 53% 30.12 in 10.0 mi Calm Calm - N/A   Clear
2:36 AM 41.0 °F - 26.6 °F 57% 30.11 in 10.0 mi Calm Calm - N/A   Clear
2:56 AM 41.0 °F - 24.8 °F 53% 30.12 in 10.0 mi Calm Calm - N/A   Clear
3:16 AM 41.0 °F - 28.4 °F 61% 30.12 in 10.0 mi Calm Calm - N/A   Clear
3:36 AM 37.4 °F - 26.6 °F 65% 30.12 in 10.0 mi Calm Calm - N/A   Clear
3:55 AM 37.4 °F - 26.6 °F 65% 30.12 in 10.0 mi Calm Calm - N/A   Clear
4:16 AM 35.6 °F - 26.6 °F 70% 30.12 in 10.0 mi Calm Calm - N/A   Clear
4:36 AM 35.6 °F - 26.6 °F 70% 30.12 in 10.0 mi Calm Calm - N/A   Clear
4:56 AM 33.8 °F - 23.0 °F 65% 30.13 in 10.0 mi Calm Calm - N/A   Clear
5:16 AM 33.8 °F - 24.8 °F 70% 30.14 in 10.0 mi Calm Calm - N/A   Clear
5:36 AM 33.8 °F - 23.0 °F 65% 30.14 in 10.0 mi Calm Calm - N/A   Clear
5:55 AM 35.6 °F - 28.4 °F 75% 30.15 in 10.0 mi Calm Calm - N/A   Clear
6:16 AM 33.8 °F - 24.8 °F 70% 30.15 in 10.0 mi Calm Calm - N/A   Clear
6:36 AM 39.2 °F - 28.4 °F 65% 30.14 in 10.0 mi Calm Calm - N/A   Clear
6:56 AM 41.0 °F - 28.4 °F 61% 30.14 in 10.0 mi Calm Calm - N/A   Clear
7:15 AM 41.0 °F - 28.4 °F 61% 30.14 in 10.0 mi Calm Calm - N/A   Clear
7:36 AM 42.8 °F - 30.2 °F 61% 30.14 in 10.0 mi Calm Calm - N/A   Clear
7:56 AM 46.4 °F - 30.2 °F 53% 30.14 in 10.0 mi Calm Calm - N/A   Clear
8:16 AM 50.0 °F - 32.0 °F 50% 30.14 in 10.0 mi Calm Calm - N/A   Clear
8:36 AM 50.0 °F - 28.4 °F 43% 30.13 in 10.0 mi Calm Calm - N/A   Clear
8:56 AM 53.6 °F - 28.4 °F 38% 30.12 in 10.0 mi Calm Calm - N/A   Clear
9:15 AM 55.4 °F - 26.6 °F 33% 30.12 in 10.0 mi Calm Calm - N/A   Clear
9:36 AM 59.0 °F - 26.6 °F 29% 30.12 in 10.0 mi Calm Calm - N/A   Clear
9:56 AM 62.6 °F - 23.0 °F 22% 30.11 in 10.0 mi Calm Calm - N/A   Clear
10:16 AM 69.8 °F - 24.8 °F 18% 30.10 in 10.0 mi Calm Calm - N/A   Clear
10:36 AM 69.8 °F - 21.2 °F 16% 30.09 in 10.0 mi Calm Calm - N/A   Clear
10:56 AM 73.4 °F - 19.4 °F 13% 30.09 in 10.0 mi West 8.1 mph - N/A   Clear
11:15 AM 77.0 °F - 14.0 °F 9% 30.08 in 10.0 mi West 6.9 mph 16.1 mph N/A   Clear
11:36 AM 77.0 °F - 10.4 °F 8% 30.08 in 10.0 mi WSW 13.8 mph 23.0 mph N/A   Clear
11:56 AM 77.0 °F - 8.6 °F 7% 30.08 in 10.0 mi SW 16.1 mph 29.9 mph N/A   Clear
12:16 PM 78.8 °F - 10.4 °F 7% 30.08 in 10.0 mi SSW 23.0 mph 31.1 mph N/A   Clear
12:36 PM 78.8 °F - 8.6 °F 7% 30.07 in 10.0 mi SW 15.0 mph 27.6 mph N/A   Scattered Clouds
12:56 PM 78.8 °F - 5.0 °F 6% 30.07 in 10.0 mi SW 12.7 mph 29.9 mph N/A   Mostly Cloudy
1:15 PM 77.0 °F - 10.4 °F 8% 30.07 in 10.0 mi WSW 13.8 mph 26.5 mph N/A   Scattered Clouds
1:36 PM 77.0 °F - 10.4 °F 8% 30.06 in 10.0 mi WSW 9.2 mph - N/A   Scattered Clouds
1:55 PM 78.8 °F - 12.2 °F 8% 30.06 in 10.0 mi WSW 13.8 mph 18.4 mph N/A   Mostly Cloudy
2:16 PM 77.0 °F - 12.2 °F 9% 30.06 in 10.0 mi WSW 11.5 mph 24.2 mph N/A   Scattered Clouds
2:36 PM 78.8 °F - 14.0 °F 9% 30.05 in 10.0 mi WSW 13.8 mph 20.7 mph N/A   Scattered Clouds
2:56 PM 78.8 °F - 14.0 °F 9% 30.04 in 10.0 mi WSW 13.8 mph 21.9 mph N/A   Scattered Clouds
3:16 PM 77.0 °F - 12.2 °F 9% 30.04 in 10.0 mi WSW 16.1 mph 25.3 mph N/A   Clear
3:36 PM 77.0 °F - 14.0 °F 9% 30.04 in 10.0 mi SW 9.2 mph 19.6 mph N/A   Clear
3:56 PM 77.0 °F - 12.2 °F 9% 30.04 in 10.0 mi West 16.1 mph 21.9 mph N/A   Clear
4:16 PM 78.8 °F - 10.4 °F 7% 30.04 in 10.0 mi SW 12.7 mph 20.7 mph N/A   Clear
4:36 PM 77.0 °F - 12.2 °F 9% 30.03 in 10.0 mi WSW 12.7 mph 21.9 mph N/A   Clear
4:56 PM 73.4 °F - 14.0 °F 10% 30.03 in 10.0 mi WSW 8.1 mph - N/A   Scattered Clouds
5:16 PM 73.4 °F - 14.0 °F 10% 30.02 in 10.0 mi SW 13.8 mph 17.3 mph N/A   Scattered Clouds
5:36 PM 78.8 °F - 12.2 °F 8% 30.02 in 10.0 mi West 13.8 mph 21.9 mph N/A   Scattered Clouds
5:55 PM 78.8 °F - 8.6 °F 7% 30.02 in 10.0 mi WSW 11.5 mph 17.3 mph N/A   Clear
6:16 PM 73.4 °F - 12.2 °F 10% 30.02 in 10.0 mi SW 24.2 mph 32.2 mph N/A   Clear
6:36 PM 73.4 °F - 10.4 °F 9% 30.02 in 10.0 mi WNW 9.2 mph 17.3 mph N/A   Clear
6:56 PM 73.4 °F - 10.4 °F 9% 30.02 in 10.0 mi WNW 10.4 mph 17.3 mph N/A   Clear
7:16 PM 77.0 °F - 10.4 °F 8% 30.04 in 10.0 mi SW 6.9 mph - N/A   Clear
7:36 PM 73.4 °F - 12.2 °F 10% 30.04 in 10.0 mi West 8.1 mph - N/A   Clear
7:56 PM 71.6 °F - 8.6 °F 9% 30.05 in 10.0 mi West 8.1 mph 18.4 mph N/A   Clear
8:16 PM 69.8 °F - 8.6 °F 9% 30.06 in 10.0 mi West 9.2 mph - N/A   Clear
8:36 PM 68.0 °F - 12.2 °F 12% 30.06 in 10.0 mi West 3.5 mph - N/A   Clear
8:56 PM 62.6 °F - 12.2 °F 14% 30.06 in 10.0 mi WNW 5.8 mph - N/A   Clear
9:16 PM 60.8 °F - 12.2 °F 15% 30.07 in 10.0 mi West 4.6 mph - N/A   Clear
9:36 PM 59.0 °F - 15.8 °F 19% 30.09 in 10.0 mi SW 4.6 mph - N/A   Clear
9:56 PM 55.4 °F - 17.6 °F 23% 30.10 in 10.0 mi SSW 3.5 mph - N/A   Clear
10:16 PM 53.6 °F - 17.6 °F 24% 30.10 in 10.0 mi ESE 5.8 mph - N/A   Clear
10:36 PM 51.8 °F - 21.2 °F 30% 30.10 in 10.0 mi ESE 3.5 mph - N/A   Clear
10:56 PM 53.6 °F - 19.4 °F 26% 30.12 in 10.0 mi East 3.5 mph - N/A   Clear
11:16 PM 51.8 °F - 24.8 °F 35% 30.12 in 10.0 mi East 3.5 mph - N/A   Clear
11:36 PM 57.2 °F - 17.6 °F 21% 30.13 in 10.0 mi NNW 10.4 mph - N/A   Clear
11:56 PM 59.0 °F - 19.4 °F 22% 30.14 in 10.0 mi SSE 3.5 mph - N/A   Clear